Location: *
(55.6049°S, 142.1985°W)
Time: 04:06:49
(UTC+00:00)

USA 267 - Pass Details

Date: 12 May 2021
Orbit: 1102 x 1106 km, 123.0° (Epoch: 22 June)

Event Time Altitude Azimuth Distance (km) Brightness Sun altitude
Rises 13:32:25 0° 81° (E) 3,941 7.1 -30.8°
Reaches altitude 10° 13:34:54 10° 81° (E) 2,985 6.3 -30.5°
Maximum altitude 13:41:31 86° 167° (SSE) 1,126 3.2 -29.6°
Enters shadow 13:42:15 73° 244° (WSW) 1,167 3.1 -29.5°
